Regional Weather Roundup
Issued by NWS

Home | Current Version | Previous Version | Text Only | Print | Product List | Glossary Off
Versions: 1 2 3 4 5 6 7 8 9 10 11 12 13 14 15 16 17 18 19 20 21 22 23 24 25 26 27 28 29 30 31 32 33 34 35 36 37 38 39 40 41 42 43 44 45 46 47 48 49 50

000
ASUS43 KIND 061309
RWRIN

WEATHER ROUNDUP FOR INDIANA
NATIONAL WEATHER SERVICE INDIANAPOLIS IN
800 AM EST FRI MAR 06 2015

NOTE: "FAIR" INDICATES FEW OR NO CLOUDS BELOW 12,000 FEET WITH NO
SIGNIFICANT WEATHER AND/OR OBSTRUCTIONS TO VISIBILITY.

* - STATION DOES NOT REPORT WEATHER SUCH AS PRECIPITATION OR FOG.

+ - STATION NOT QUALITY CONTROLLED BY THE NATIONAL WEATHER SERVICE.
    USE DATA WITH CAUTION...ESPECIALLY DEWPOINT AND RELATIVE
    HUMIDITY OBSERVATIONS.

INZ001>003-010>013-019-020-061400-
NORTHWEST INDIANA

CITY           SKY/WX    TMP DP  RH WIND       PRES   REMARKS
GARY /AIRPORT/ PTCLDY     7  -4  61 S7        30.47F WCI  -5
KNOX *+          N/A      1  -9  60 S8        30.48F WCI -12
LA PORTE +     PTCLDY     2  -3  81 S5        30.47F WCI  -8
MICHIGAN CITY+ PTCLDY     5  -6  61 S5        30.47F WCI  -4
MONTICELLO +   PTCLDY     1  -2  86 S3        30.50S
RENSSELAER +   PTCLDY     3   0  85 S5        30.48F WCI  -6
VALPARAISO     PTCLDY     0  -5  79 S5        30.46F WCI -10

$$

LMZ046-743>745-061400-
SOUTHERN LAKE MICHIGAN

STATION/POSITION TIME  TEMP WIND        PRES
                       AIR  DIR/SP/G
                 (UTC) (F)  (DEG/KT/KT) (MB)
MICHIGAN CITY    1300    4  170/  9/ 11   N/A

$$

INZ004-005-014>016-021>024-061400-
NORTH CENTRAL INDIANA

CITY           SKY/WX    TMP DP  RH WIND       PRES   REMARKS
ELKHART        MOCLDY     1  -6  71 SW6       30.48S WCI -10
GOSHEN         MOCLDY     0  -4  83 S6        30.47F WCI -12
LOGANSPORT +   PTCLDY    -2  -6  84 S6        30.52S WCI -14
PERU/GRISSOM   MOCLDY     1  -3  81 S7        30.49S WCI -12
ROCHESTER +    PTCLDY     5   1  85 S3        30.50S
SOUTH BEND     PTCLDY     2  -3  80 S3        30.47S
WARSAW +       MOCLDY     3  -2  78 S3        30.48S

$$

INZ006>009-017-018-025>027-061400-
NORTHEAST INDIANA

CITY           SKY/WX    TMP DP  RH WIND       PRES   REMARKS
ANGOLA *+      CLEAR     -4  -8  84 CALM      30.46R
AUBURN +       MOCLDY     3   0  85 SW3       30.48F
FORT WAYNE     MOCLDY    -1  -5  82 SW7       30.50F WCI -14
HUNTINGTON +   MOCLDY     0  -7  73 S3        30.50S

$$

INZ028-029-035-036-043>045-051>053-061400-
WEST CENTRAL INDIANA

CITY           SKY/WX    TMP DP  RH WIND       PRES   REMARKS
CRAWFORDSVL +  PTCLDY    -4 -10  73 SE3       30.51S
GREENCASTLE +  PTCLDY     0  -6  78 CALM      30.52S
LAFAYETTE      PTCLDY    -2  -4  91 CALM      30.52F
TERRE HAUTE    PTCLDY    -2  -6  83 CALM      30.56R

$$

INZ030>032-037>040-046>048-054>057-064-065-061400-
CENTRAL INDIANA

CITY           SKY/WX    TMP DP  RH WIND       PRES   REMARKS
CP ATTERBURY + PTCLDY     3   1  92 CALM      30.56R
COLUMBUS       CLEAR      5   1  85 CALM      30.55F
FRANKFORT +    MOCLDY    -7 -11  82 S5        30.51F WCI -18
GREENWOOD *+   CLEAR      3  -2  78 CALM      30.53S
INDIANAPOLIS   MOCLDY     5   0  79 S3        30.51S
-EAGLE CREEK   PTCLDY     4   1  88 CALM      30.51F
KOKOMO *+        N/A    N/A N/A N/A MISG        N/A
MARION +       PTCLDY    -6 -11  79 S3        30.51F
MT COMFORT *+  PTCLDY    -2 -11  65 CALM      30.52S
SHELBYVILLE    PTCLDY     1  -4  79 CALM      30.53F
ZIONSVILLE +   FAIR       0  -5  79 CALM      30.51S

$$

INZ033-034-041-042-049-050-058-059-061400-
EAST CENTRAL INDIANA

CITY           SKY/WX    TMP DP  RH WIND       PRES   REMARKS
MUNCIE         PTCLDY     5   1  83 S3        30.51R

$$

INZ060-061-067>069-081>083-085>088-061400-
SOUTHWEST INDIANA

CITY           SKY/WX    TMP DP  RH WIND       PRES   REMARKS
EVANSVILLE     PTCLDY     2  -2  83 CALM      30.59S
HUNTINGBURG *+ PTCLDY    -2  -8  78 E5        30.56S WCI -12
WASHINGTON +   PTCLDY     4   0  81 CALM      30.57R

$$

INZ062-063-066-070>080-084-089>092-061400-
SOUTH CENTRAL AND SOUTHEAST INDIANA

CITY           SKY/WX    TMP DP  RH WIND       PRES   REMARKS
BEDFORD +      MOCLDY     3   0  85 CALM      30.55R
BLOOMINGTON    FAIR       2  -1  88 CALM      30.52F
NORTH VERNON + PTCLDY     1  -2  85 CALM      30.55F
SEYMOUR +      PTCLDY     7   1  78 CALM      30.56F

$$



USA.gov is the U.S. government's official web portal to all federal, state and local government web resources and services.